SL-14 DEB, 47091

Orbit data source: Space-Track

SL-14 DEB, 47091 is space debris in LEO originally from a launch on Thu, 15 Aug 1991 UTC launched from the Plesetsk Missile And Space Complex (PKMTR). Debris objects in space refer to the collection of defunct objects orbiting the Earth. Examples of debris include non-operational satellites, rocket bodies, and fragments generated from explosions, collisions, or faulty payload assembly.

Loading next visibility...
Identifier
47091, 1991-056DR
Orbit
LEO
Country
Flag of CISCIS
Related business
Manufacturer
Unknown
Mission
Spacecraft
Bus & Motor
Unknown
Mass
Unknown
Launch date (UTC)
1991-08-15 (35 years ago)
Launch vehicle
Unknown
Launch site
Plesetsk Missile And Space Complex (PKMTR)
Object type
Payload
Rocket body
Debris
Shape & HBR
Unknown shape, 0.1 m
Radar Cross Section
Small (<0.1 m²)

Expand to show TLE details & history
Last TLE update: 6 days ago

TLE from 6 days ago
0 SL-14 DEB
1 47091U 91056DR  26120.56049628  .00000518  00000-0  12476-2 0  9999
2 47091  82.6012 177.0813 0014897 108.5373 251.7371 13.20448804264355
Epoch: 2026-04-30T13:27Z
TLE epoch observation values (Epoch: 2026-04-30T13:27:06.878Z)
Latitude
-0.00006°
Longitude
116.79729°
Altitude
1,189.365 km
Speed
7.257 km/s
True Right ascension
11h 48m 19s
True Declination
0° 00' 00"
Sunlit
Object was in full shadow at epoch
Visualization orbit readout
Latitude
Unknown
Longitude
Unknown
Altitude
Unknown
Speed
Unknown
Apparent Right ascension
Unknown
Apparent Declination
Unknown
Sunlit
N/A
Visualization observer readout
Local Sidereal Time
03:55:36
Azimuth
Unknown
Elevation
Unknown
Doppler factor
Unknown
Orbital elements
Apogee altitude
1,191.504 km
Perigee altitude
1,168.984 km
Semi-major axis
7,558.381 km
Eccentricity
0.00149
Inclination
82.6012°
RAAN
177.0813°
Arg. of periapsis
108.5373°
True anomaly
251.57509°
Mean anomaly
251.7371°
Eccentric anomaly
251.65608°
Mean motion
3.30293 °/min
Orbital period
108.99 mins
BSTAR
0.0012476
Loading maneuver chart data...
Computing Atmospheric mass density...
Loading historical data...
Loading historical data...
Loading historical data...
Loading historical data...
Loading historical data...
Loading historical data...
Loading historical data...

Documentation

Showing up to 5 results
|